SCP
0 0 0 0 0 0 0 0 0 0 0 0 0 0 0 0 0 0 0 0 0 0 0 0 0 0 0 0 0 0 0 0 0 0 0 0 0 0 0 0 0 0 0 0
0 0 0 0 0 0 0 0 0 0 0 0 0 0 0 0 0 0 0 0 0 0 0 0 0 0 0 0 0 0 0 0 0 0 0 0 0 0 0 0 0 0 0 0
0 0 0 0 0 0 0 0 0 0 0 0 0 0 0 0 0 0 0 0 0 0 0 0 0 0 0 0 0 0 0 0 0 0 0 0 0 0 0 0 0 0 0 0
0 0 0 0 0 0 0 0 0 0 0 0 0 0 0 0 0 0 0 0 0 0 0 0 0 0 0 0 0 0 0 0 0 0 0 0 0 0 0 0 0 0 0 0
0 0 0 0 0 0 0 0 0 0 0 0 0 0 0 0 0 0 0 0 0 0 0 0 0 0 0 0 0 0 0 0 0 0 0 0 0 0 0 0 0 0 0 0
0 0 0 0 0 0 0 0 0 0 0 0 0 0 0 0 0 0 0 0 0 0 0 0 0 0 0 0 0 0 0 0 0 0 0 0 0 0 0 0 0 0 0 0
0 0 0 0 0 0 0 0 0 0 0 0 0 0 0 0 0 0 0 0 0 0 0 0 0 0 0 0 0 0 0 0 0 0 0 0 0 0 0 0 0 0 0 0
0 0 0 0 0 0 0 0 0 0 0 0 0 0 0 0 0 0 0 0 0 0 0 0 0 0 0 0 0 0 0 0 0 0 0 0 0 0 0 0 0 0 0 0
0 0 0 0 0 0 0 0 0 0 0 0 0 0 0 0 0 0 0 0 0 0 0 0 0 0 0 0 0 0 0 0 0 0 0 0 0 0 0 0 0 0 0 0
0 0 0 0 0 0 0 0 0 0 0 0 0 0 0 0 0 0 0 0 0 0 0 0 0 0 0 0 0 0 0 0 0 0 0 0 0 0 0 0 0 0 0 0
0 0 0 0 0 0 0 0 0 0 0 0 0 0 0 0 0 0 0 0 0 0 0 0 0 0 0 0 0 0 0 0 0 0 0 0 0 0 0 0 0 0 0 0
0 0 0 0 0 0 0 0 0 0 0 0 0 0 0 0 0 0 0 0 0 0 0 0 0 0 0 0 0 0 0 0 0 0 0 0 0 0 0 0 0 0 0 0
0 0 0 0 0 0 0 0 0 0 0 0 0 0 0 0 0 0 0 0 0 0 0 0 0 0 0 0 0 0 0 0 0 0 0 0 0 0 0 0 0 0 0 0
0 0 0 0 0 0 0 0 0 0 0 0 0 0 0 0 0 0 0 0 0 0 0 0 0 0 0 0 0 0 0 0 0 0 0 0 0 0 0 0 0 0 0 0
0 0 0 0 0 0 0 0 0 0 0 0 0 0 0 0 0 0 0 0 0 0 0 0 0 0 0 0 0 0 0 0 0 0 0 0 0 0 0 0 0 0 0 0
0 0 0 0 0 0 0 0 0 0 0 0 0 0 0 0 0 0 0 0 0 0 0 0 0 0 0 0 0 0 0 0 0 0 0 0 0 0 0 0 0 0 0 0
0 0 0 0 0 0 0 0 0 0 0 0 0 0 0 0 0 0 0 0 0 0 0 0 0 0 0 0 0 0 0 0 0 0 0 0 0 0 0 0 0 0 0 0
0 0 0 0 0 0 0 0 0 0 0 0 0 0 0 0 0 0 0 0 0 0 0 0 0 0 0 0 0 0 0 0 0 0 0 0 0 0 0 0 0 0 0 0
0 0 0 0 0 0 0 0 0 0 0 0 0 0 0 0 0 0 0 0 0 0 0 0 0 0 0 0 0 0 0 0 0 0 0 0 0 0 0 0 0 0 0 0
0 0 0 0 0 0 0 0 0 0 0 0 0 0 0 0 0 0 0 0 0 0 0 0 0 0 0 0 0 0 0 0 0 0 0 0 0 0 0 0 0 0 0 0
0 0 0 0 0 0 0 0 0 0 0 0 0 0 0 0 0 0 0 0 0 0 0 0 0 0 0 0 0 0 0 0 0 0 0 0 0 0 0 0 0 0 0 0
0 0 0 0 0 0 0 0 0 0 0 0 0 0 0 0 0 0 0 0 0 0 0 0 0 0 0 0 0 0 0 0 0 0 0 0 0 0 0 0 0 0 0 0
0 0 0 0 0 0 0 0 0 0 0 0 0 0 0 0 0 0 0 0 0 0 0 0 0 0 0 0 0 0 0 0 0 0 0 0 0 0 0 0 0 0 0 0
0 0 0 0 0 0 0 0 0 0 0 0 0 0 0 0 0 0 0 0 0 0 0 0 0 0 0 0 0 0 0 0 0 0 0 0 0 0 0 0 0 0 0 0
0 0 0 0 0 0 0 0 0 0 0 0 0 0 0 0 0 0 0 0 0 0 0 0 0 0 0 0 0 0 0 0 0 0 0 0 0 0 0 0 0 0 0 0
0 0 0 0 0 0 0 0 0 0 0 0 0 0 0 0 0 0 0 0 0 0 0 0 0 0 0 0 0 0 0 0 0 0 0 0 0 0 0 0 0 0 0 0
Wind_Speed
8 6 5 4 6 6 4 3 2 2 3 4 4 5 6 7 7 6 7 8 7 8 9 9 7 6 6 6 7 6 5 4 3 2 2 2 1 1 2 1 1 1 1 2
6 6 5 5 5 7 7 5 2 2 2 3 4 5 6 8 8 7 8 9 9 8 9 9 8 6 6 6 7 7 6 5 4 2 2 2 2 1 1 1 2 2 2 2
7 3 5 7 6 6 6 5 3 3 3 6 5 5 6 7 7 7 7 8 9 9 10 10 9 8 6 7 6 7 7 6 5 4 2 2 2 1 2 2 2 2 2 3
5 5 5 7 6 7 5 4 4 5 5 5 6 4 6 8 8 9 8 8 8 8 9 9 9 8 7 7 7 7 7 7 6 6 4 3 2 2 2 2 1 1 2 3
4 5 7 6 5 6 4 4 6 7 6 7 8 6 4 7 8 9 9 8 8 9 9 10 9 8 7 6 5 5 6 6 6 6 5 3 3 2 2 2 2 2 2 2
6 5 5 4 5 5 6 6 8 8 6 7 7 5 2 4 7 8 9 9 9 9 8 9 8 7 6 6 5 4 5 5 5 6 6 4 4 3 3 3 2 2 2 1
7 7 6 5 6 6 7 5 3 4 5 5 5 4 2 2 4 6 8 8 8 8 9 9 9 8 6 7 6 5 5 6 5 5 5 6 5 4 4 3 2 2 2 1
6 6 6 6 7 6 7 7 4 3 3 3 5 3 3 4 3 4 7 8 8 8 8 9 9 8 7 7 6 6 6 6 6 5 5 6 6 3 2 3 3 3 2 2
4 3 4 4 4 7 6 6 6 6 7 5 3 4 4 5 4 4 6 7 8 8 7 9 9 9 8 8 6 6 7 6 6 5 5 5 6 4 4 3 3 2 2 3
5 4 3 3 5 8 7 6 5 5 4 4 3 3 3 5 5 6 6 7 7 7 7 8 9 8 7 7 7 6 6 7 6 5 4 4 5 5 4 4 3 3 2 2
6 6 4 5 6 6 7 8 6 4 4 4 3 1 0 3 3 5 6 6 7 8 7 7 7 8 7 7 6 6 5 5 6 6 5 5 5 5 5 3 3 2 3 3
5 5 6 6 5 5 7 8 6 4 5 5 4 1 0 2 3 3 5 5 6 7 7 7 7 7 7 7 7 6 6 6 5 5 5 5 5 5 4 4 3 3 3 3
3 5 5 3 5 6 7 8 8 6 5 5 5 2 1 2 3 3 4 5 5 7 7 7 6 7 7 6 6 6 6 5 6 5 5 6 5 5 5 4 4 3 3 3
4 7 8 6 4 3 6 8 8 8 6 6 6 3 3 2 3 3 4 5 6 6 6 6 6 5 6 6 6 5 5 5 6 5 5 5 5 5 4 3 3 3 3 4
6 9 10 9 8 7 8 10 10 9 9 8 7 6 3 2 2 3 5 5 6 7 7 7 6 5 5 6 6 6 6 6 6 6 5 5 5 5 4 4 3 3 3 3
7 9 9 10 11 10 11 12 11 11 10 10 9 7 2 2 2 2 4 5 5 6 6 7 7 6 6 6 6 6 5 6 6 6 6 5 5 5 5 4 3 3 3 3
7 8 9 9 9 10 11 10 10 10 10 9 8 4 2 2 2 2 4 5 6 5 6 5 6 6 6 6 6 5 5 6 6 6 6 6 6 5 5 4 4 4 3 3
9 9 6 7 8 11 5 4 6 8 9 8 5 2 2 2 3 3 4 5 5 5 5 5 5 5 5 5 6 6 6 6 6 6 6 6 6 6 5 5 4 3 3 3
10 8 6 5 8 8 6 5 5 7 8 6 5 4 3 3 2 2 3 5 5 5 5 5 5 5 5 5 6 6 7 6 6 6 6 7 7 6 6 6 5 4 4 3
9 8 7 6 7 7 3 2 3 5 6 3 3 3 3 4 3 2 3 5 5 5 5 4 5 5 5 5 5 6 6 6 6 6 6 6 6 6 6 6 5 4 4 4
8 8 10 9 8 7 2 1 3 5 2 0 1 2 4 4 3 4 4 5 6 6 5 4 4 4 4 5 5 6 6 6 6 5 5 5 6 6 6 5 4 5 4 4
7 6 8 7 8 6 1 3 3 1 1 0 0 1 2 3 3 5 6 6 6 6 5 5 4 3 4 5 6 5 5 5 6 6 5 5 6 5 5 5 4 4 5 5
6 5 3 4 3 0 1 1 1 2 2 1 0 2 3 4 4 5 5 6 6 6 6 5 4 4 3 4 5 5 5 5 6 6 6 5 6 4 5 6 5 4 4 4
4 4 4 5 4 2 3 2 1 2 3 2 2 2 2 3 4 4 5 6 6 6 6 5 5 4 3 3 4 5 5 6 6 6 5 5 5 5 5 4 4 4 4 4
4 3 5 7 5 3 3 3 4 4 3 2 1 1 1 2 3 4 4 5 5 5 5 5 5 4 3 3 4 5 5 6 6 6 5 5 4 5 4 4 2 3 3 4
7 7 7 5 4 4 3 2 3 4 3 2 1 1 1 1 2 3 3 4 5 6 5 5 5 4 4 4 4 4 5 5 6 5 5 4 4 4 4 5 4 5 3 4
Wind_Direction
210 221 225 221 232 258 258 243 216 220 228 221 212 192 187 180 189 187 181 180 185 182 170 163 164 162 151 154 149 147 151 140 116 103 105 95 79 72 77 89 91 72 71 67
216 223 227 234 236 246 251 253 236 232 227 251 237 217 203 191 190 191 188 183 188 183 172 163 165 163 162 162 158 155 159 147 130 124 122 118 110 105 86 52 47 38 58 63
225 215 220 237 242 249 248 253 242 237 246 252 252 232 202 188 180 189 193 187 187 184 175 168 172 168 166 168 168 162 157 152 146 141 115 106 88 80 84 62 34 26 45 57
228 227 237 240 248 257 256 261 254 241 239 245 234 245 207 187 185 191 192 186 182 179 173 167 170 170 175 172 168 163 161 160 156 149 152 154 150 150 133 125 125 59 52 54
231 227 238 242 249 260 267 264 257 250 253 262 245 243 208 181 189 188 186 183 182 178 176 168 170 173 172 164 162 166 160 157 155 155 157 161 156 145 132 126 124 104 71 62
247 248 263 261 256 253 256 260 253 244 247 253 242 239 211 197 185 180 181 179 179 177 170 163 164 165 164 157 160 168 155 152 148 154 158 166 148 140 134 134 137 127 116 104
229 221 221 237 247 239 245 248 254 227 215 238 227 225 188 139 146 165 172 174 172 170 170 166 165 164 158 155 159 162 154 148 154 163 166 163 154 159 158 148 148 145 133 122
237 224 209 216 240 244 246 241 242 260 256 251 233 204 154 134 126 143 158 163 168 169 168 166 164 161 159 155 159 164 160 159 165 173 171 157 154 157 155 154 156 159 151 147
269 240 192 221 245 256 251 248 260 278 285 270 221 169 152 140 148 148 154 161 169 169 165 165 163 163 160 158 161 167 166 165 170 176 169 163 158 151 153 153 147 148 153 146
281 276 223 209 235 234 255 266 256 252 276 275 262 222 175 160 164 163 166 169 164 162 164 161 160 163 162 160 164 170 177 174 172 169 168 153 145 144 146 139 141 144 138 139
269 263 241 214 229 237 229 239 243 255 260 272 280 283 169 157 159 168 165 162 161 164 165 159 159 162 159 156 161 170 177 171 168 167 161 150 146 143 137 137 147 146 148 151
261 275 260 236 230 260 267 257 250 245 260 265 270 236 325 127 129 142 149 151 155 155 151 149 151 154 156 160 168 172 175 171 166 164 160 152 149 144 143 148 159 158 156 152
283 265 266 241 217 217 245 249 250 249 255 259 260 207 159 115 125 129 141 146 146 144 146 147 147 159 160 161 166 171 170 164 160 161 156 156 158 152 153 161 166 164 156 149
274 259 263 264 275 268 259 255 249 248 247 255 259 250 201 177 156 148 141 144 140 140 143 143 147 157 155 160 166 168 166 161 157 155 154 157 153 146 148 144 145 156 145 142
251 255 263 270 272 266 269 268 256 250 250 259 268 268 241 184 153 153 141 139 147 147 148 150 152 155 157 164 168 166 161 158 159 156 160 159 150 141 138 136 142 139 131 133
243 258 262 263 258 258 258 254 253 250 250 251 260 260 223 183 183 151 140 140 144 149 155 160 163 159 165 168 166 162 159 161 160 158 160 147 139 133 134 141 141 130 126 121
240 255 266 265 263 265 255 245 241 244 247 248 251 251 220 202 172 163 153 146 153 154 153 157 163 163 170 173 169 163 164 159 159 161 149 142 142 140 145 145 131 130 132 121
245 248 258 267 267 256 253 226 232 246 253 250 247 220 225 205 156 153 143 144 148 154 156 161 167 163 170 173 168 165 159 161 163 158 152 152 149 148 144 136 138 148 138 126
240 243 253 264 264 265 252 234 233 238 248 243 231 214 205 180 172 158 139 141 149 154 157 160 163 164 168 167 165 162 160 165 161 160 159 156 153 151 149 149 155 154 139 133
232 232 236 245 255 262 262 200 238 247 245 230 226 215 195 186 188 179 156 141 144 142 145 150 155 162 161 161 160 161 164 164 163 162 160 157 152 152 157 160 157 143 138 144
217 223 229 239 249 259 276 197 216 232 227 214 235 213 187 195 168 151 135 125 124 124 133 140 147 155 157 156 155 162 164 164 159 153 151 150 150 154 156 155 151 146 146 143
225 223 226 230 237 241 289 207 210 297 10 39 68 180 142 125 124 133 129 126 129 125 132 137 138 139 144 149 150 154 158 155 148 144 145 149 147 151 150 145 148 152 149 148
234 233 244 240 243 286 307 312 355 337 303 332 53 107 145 141 140 138 135 133 134 135 138 142 141 141 144 147 150 154 150 140 141 143 147 148 147 149 151 152 157 157 153 156
250 250 247 256 249 265 277 279 295 311 326 356 38 92 155 154 145 140 138 138 139 143 144 145 142 143 149 151 143 142 141 143 146 147 149 150 152 154 153 152 156 158 163 166
257 250 249 260 260 267 284 311 329 332 331 336 14 84 134 152 149 148 149 149 147 148 147 146 149 156 161 150 142 137 145 152 153 152 150 150 146 149 146 132 128 152 161 173
249 248 242 254 277 273 274 294 296 299 311 313 335 187 188 176 151 144 142 142 150 155 153 152 152 159 162 157 154 150 153 155 155 155 155 151 148 146 141 134 112 72 99 125